contact:dominique.lefevre@mio.osupytheas.fr, maurice.libes@osupytheas.fr, didier.mallarino@osupytheas.fr
Project:EMSO http://www.emso-fr.org/EMSO-France
Depth: 2436.0 m
Title:EMSO Ligure Ouest : Data MII capteur AQUADOPP
Date,Latitude,Longitude,X_East,Y_North,Z_Up,Amplitude_X,Amplitude_Y,Amplitude_Z,Batterie,SoundSpeed,Heading,Pitch,Roll,Pressure,TIS,Speed,Direction
, degrees North, degrees East, m.s-1, m.s-1,m.s-1, 1, 1, 1, Volt, m.s-1, degree, degree, degree, dbar, degree_C, m.s-1, degree
2020-12-04T00:04:03,42.805,6.029,-0.016,-0.001,0.0,105.0,112.0,101.0,13.3,1505.3,323.8,-0.7,1.8,2470.421,13.31,0.016,266.4
2020-12-04T00:07:03,42.805,6.029,-0.023,0.011,-0.022,103.0,113.0,100.0,13.4,1505.3,325.0,-0.7,1.8,2470.428,13.32,0.025,295.6
2020-12-04T00:10:03,42.805,6.029,-0.004,0.02,0.006,105.0,111.0,101.0,13.4,1505.3,326.4,-0.7,1.8,2470.387,13.32,0.02,348.7
2020-12-04T00:13:03,42.805,6.029,-0.036,0.013,-0.014,103.0,113.0,100.0,13.4,1505.3,325.1,-0.7,1.8,2470.38,13.33,0.038,289.9
2020-12-04T00:16:03,42.805,6.029,-0.02,0.02,-0.009,105.0,113.0,100.0,13.4,1505.3,327.8,-0.7,1.9,2470.372,13.33,0.028,315.0
2020-12-04T00:19:03,42.805,6.029,-0.016,0.044,-0.023,105.0,112.0,101.0,13.4,1505.3,328.1,-0.7,1.8,2470.397,13.33,0.046,340.0
2020-12-04T00:22:03,42.805,6.029,-0.048,0.024,-0.003,102.0,113.0,101.0,13.4,1505.3,326.4,-0.7,1.8,2470.365,13.33,0.053,296.6
2020-12-04T00:25:03,42.805,6.029,-0.02,0.009,-0.021,103.0,112.0,101.0,13.4,1505.3,326.3,-0.7,1.8,2470.376,13.33,0.021,294.2
2020-12-04T00:28:03,42.805,6.029,-0.036,0.023,-0.001,103.0,114.0,100.0,13.4,1505.3,327.8,-0.7,1.8,2470.403,13.33,0.042,302.6
2020-12-04T00:31:03,42.805,6.029,-0.047,0.002,-0.005,103.0,111.0,102.0,13.4,1505.3,326.5,-0.7,1.8,2470.37,13.33,0.047,272.4
2020-12-04T00:34:03,42.805,6.029,-0.027,0.025,-0.009,104.0,113.0,100.0,13.4,1505.3,327.4,-0.7,1.8,2470.344,13.33,0.036,312.8
2020-12-04T00:37:03,42.805,6.029,-0.008,0.001,0.006,104.0,111.0,102.0,13.4,1505.3,324.1,-0.7,1.8,2470.301,13.33,0.008,277.1
2020-12-04T00:40:03,42.805,6.029,-0.012,0.021,-0.021,104.0,113.0,102.0,13.3,1505.3,326.5,-0.7,1.9,2470.358,13.33,0.024,330.3
2020-12-04T00:43:03,42.805,6.029,-0.026,0.015,0.0,104.0,109.0,101.0,13.3,1505.3,325.9,-0.7,1.8,2470.352,13.33,0.03,300.0
2020-12-04T00:46:03,42.805,6.029,-0.032,0.022,0.014,104.0,113.0,101.0,13.3,1505.3,327.6,-0.7,1.9,2470.372,13.33,0.038,304.5
2020-12-04T00:49:03,42.805,6.029,-0.048,0.018,-0.028,103.0,112.0,101.0,13.3,1505.3,324.7,-0.7,1.8,2470.295,13.33,0.051,290.6
2020-12-04T00:52:03,42.805,6.029,-0.027,0.002,-0.016,104.0,112.0,101.0,13.4,1505.3,323.5,-0.7,1.8,2470.322,13.33,0.027,274.2
2020-12-04T00:55:03,42.805,6.029,-0.031,0.014,0.0,103.0,114.0,101.0,13.3,1505.3,323.4,-0.7,1.8,2470.286,13.33,0.034,294.3
2020-12-04T00:58:03,42.805,6.029,-0.029,0.023,0.012,102.0,112.0,100.0,13.4,1505.3,325.4,-0.7,1.8,2470.361,13.33,0.037,308.4
2020-12-04T01:01:03,42.805,6.029,-0.027,0.022,-0.005,104.0,109.0,101.0,13.3,1505.3,326.0,-0.7,1.8,2470.323,13.33,0.034,309.2
2020-12-04T01:04:03,42.805,6.029,-0.002,0.014,0.019,104.0,111.0,102.0,13.4,1505.3,326.5,-0.7,1.8,2470.332,13.33,0.014,351.9
2020-12-04T01:07:03,42.805,6.029,-0.055,0.005,-0.029,104.0,113.0,101.0,13.4,1505.3,323.4,-0.7,1.8,2470.297,13.33,0.055,275.2
2020-12-04T01:10:03,42.805,6.029,-0.035,0.002,0.003,104.0,112.0,101.0,13.4,1505.3,324.0,-0.7,1.8,2470.294,13.33,0.035,273.3
2020-12-04T01:13:03,42.805,6.029,-0.031,0.019,-0.018,104.0,112.0,100.0,13.4,1505.3,327.3,-0.7,1.8,2470.356,13.33,0.036,301.5
2020-12-04T01:16:03,42.805,6.029,-0.019,0.045,0.017,103.0,113.0,101.0,13.4,1505.3,324.0,-0.7,1.8,2470.316,13.33,0.048,337.1
2020-12-04T01:19:03,42.805,6.029,-0.002,0.039,0.028,103.0,113.0,101.0,13.4,1505.3,326.1,-0.7,1.8,2470.332,13.33,0.039,357.1
2020-12-04T01:22:03,42.805,6.029,-0.019,0.026,0.028,104.0,111.0,101.0,13.4,1505.3,326.8,-0.7,1.8,2470.306,13.33,0.032,323.8
2020-12-04T01:25:03,42.805,6.029,-0.018,0.011,-0.018,104.0,111.0,100.0,13.3,1505.3,326.4,-0.7,1.8,2470.321,13.33,0.021,301.4
2020-12-04T01:28:03,42.805,6.029,-0.009,0.026,0.004,104.0,114.0,100.0,13.4,1505.3,325.5,-0.7,1.8,2470.327,13.33,0.027,340.9
2020-12-04T01:31:03,42.805,6.029,-0.037,0.027,0.0,103.0,116.0,102.0,13.3,1505.3,325.2,-0.7,1.8,2470.338,13.33,0.045,306.1
2020-12-04T01:34:03,42.805,6.029,-0.037,0.018,-0.042,104.0,113.0,100.0,13.4,1505.3,325.4,-0.7,1.8,2470.309,13.33,0.041,295.9
2020-12-04T01:37:03,42.805,6.029,-0.022,0.029,0.006,102.0,112.0,102.0,13.4,1505.3,328.1,-0.7,1.8,2470.333,13.33,0.036,322.8
2020-12-04T01:40:03,42.805,6.029,-0.005,0.067,0.06,103.0,117.0,100.0,13.3,1505.3,323.1,-0.7,1.8,2470.288,13.33,0.067,355.7
2020-12-04T01:43:03,42.805,6.029,-0.054,0.031,-0.005,103.0,115.0,100.0,13.4,1505.3,326.3,-0.7,1.8,2470.317,13.33,0.062,299.9
2020-12-04T01:46:03,42.805,6.029,-0.033,0.014,-0.012,103.0,115.0,101.0,13.4,1505.3,324.0,-0.7,1.9,2470.3,13.33,0.035,293.0
2020-12-04T01:49:03,42.805,6.029,-0.007,0.035,0.006,102.0,115.0,100.0,13.3,1505.3,324.3,-0.7,1.8,2470.311,13.33,0.035,348.7
2020-12-04T01:52:03,42.805,6.029,-0.048,0.026,0.011,103.0,112.0,101.0,13.4,1505.3,327.5,-0.7,1.8,2470.275,13.33,0.054,298.4
2020-12-04T01:55:03,42.805,6.029,-0.007,0.029,0.023,103.0,113.0,101.0,13.4,1505.3,324.2,-0.7,1.8,2470.307,13.33,0.029,346.4
2020-12-04T01:58:03,42.805,6.029,-0.032,0.029,0.025,103.0,117.0,101.0,13.4,1505.3,326.3,-0.7,1.8,2470.315,13.33,0.043,312.2
2020-12-04T02:04:03,42.805,6.029,-0.038,0.032,-0.029,104.0,114.0,101.0,13.4,1505.3,326.8,-0.7,1.8,2470.344,13.31,0.049,310.1
2020-12-04T02:07:03,42.805,6.029,-0.03,0.036,0.008,102.0,116.0,102.0,13.4,1505.3,324.5,-0.7,1.8,2470.347,13.31,0.046,320.2
2020-12-04T02:10:03,42.805,6.029,-0.056,0.03,-0.033,102.0,117.0,100.0,13.4,1505.3,326.8,-0.7,1.8,2470.336,13.32,0.063,298.2
2020-12-04T02:13:03,42.805,6.029,-0.033,0.02,0.0,103.0,112.0,101.0,13.3,1505.3,325.3,-0.7,1.8,2470.38,13.32,0.038,301.2
2020-12-04T02:16:03,42.805,6.029,-0.012,0.036,-0.038,105.0,119.0,100.0,13.4,1505.3,327.6,-0.7,1.8,2470.304,13.32,0.037,341.6
2020-12-04T02:19:03,42.805,6.029,-0.02,0.039,-0.006,103.0,118.0,100.0,13.4,1505.3,325.6,-0.7,1.8,2470.305,13.32,0.043,332.9
2020-12-04T02:22:03,42.805,6.029,-0.05,0.036,-0.004,103.0,114.0,100.0,13.3,1505.3,324.2,-0.7,1.8,2470.334,13.32,0.061,305.8
2020-12-04T02:25:03,42.805,6.029,-0.025,0.055,0.002,103.0,116.0,101.0,13.4,1505.3,327.2,-0.7,1.8,2470.311,13.32,0.06,335.6
2020-12-04T02:28:03,42.805,6.029,-0.001,0.028,0.018,104.0,113.0,100.0,13.3,1505.3,325.6,-0.7,1.8,2470.342,13.32,0.028,358.0
2020-12-04T02:31:03,42.805,6.029,0.0,0.056,0.034,103.0,115.0,100.0,13.4,1505.3,327.6,-0.7,1.8,2470.301,13.32,0.056,0.0
2020-12-04T02:34:03,42.805,6.029,-0.026,0.036,0.021,102.0,113.0,101.0,13.4,1505.3,325.0,-0.7,1.8,2470.285,13.32,0.044,324.2
2020-12-04T02:37:03,42.805,6.029,-0.023,0.051,0.034,103.0,115.0,100.0,13.3,1505.3,327.7,-0.7,1.8,2470.292,13.32,0.055,335.7
2020-12-04T02:40:03,42.805,6.029,-0.015,0.016,0.021,103.0,113.0,101.0,13.4,1505.3,325.2,-0.7,1.8,2470.323,13.32,0.021,316.9
2020-12-04T02:43:03,42.805,6.029,-0.008,0.037,0.005,101.0,112.0,99.0,13.3,1505.3,328.2,-0.7,1.8,2470.332,13.32,0.037,347.8
2020-12-04T02:46:03,42.805,6.029,0.005,0.034,0.006,103.0,114.0,100.0,13.3,1505.3,326.2,-0.7,1.9,2470.291,13.33,0.034,8.4
2020-12-04T02:49:03,42.805,6.029,-0.007,0.044,0.042,102.0,113.0,101.0,13.4,1505.3,328.0,-0.7,1.8,2470.305,13.33,0.044,351.0
2020-12-04T02:52:03,42.805,6.029,-0.049,0.033,-0.008,103.0,112.0,101.0,13.3,1505.3,323.0,-0.7,1.8,2470.311,13.32,0.059,304.0
2020-12-04T02:55:03,42.805,6.029,-0.029,0.038,-0.007,102.0,115.0,100.0,13.4,1505.3,324.7,-0.7,1.8,2470.281,13.32,0.047,322.7
2020-12-04T02:58:03,42.805,6.029,-0.024,0.05,0.015,102.0,111.0,100.0,13.4,1505.3,326.0,-0.7,1.9,2470.272,13.33,0.055,334.4
2020-12-04T03:04:03,42.805,6.029,-0.014,0.051,0.003,102.0,118.0,100.0,13.4,1505.2,326.9,-0.7,1.8,2470.328,13.3,0.052,344.7
2020-12-04T03:07:03,42.805,6.029,0.017,0.041,0.008,102.0,114.0,100.0,13.3,1505.3,324.6,-0.7,1.8,2470.326,13.31,0.044,22.5
2020-12-04T03:10:03,42.805,6.029,-0.009,0.033,0.02,103.0,115.0,99.0,13.4,1505.3,328.2,-0.7,1.8,2470.325,13.31,0.034,344.7
2020-12-04T03:13:03,42.805,6.029,-0.026,0.05,0.022,102.0,114.0,101.0,13.4,1505.3,325.6,-0.7,1.9,2470.337,13.32,0.056,332.5
2020-12-04T03:16:03,42.805,6.029,-0.032,0.032,-0.028,103.0,117.0,100.0,13.4,1505.3,322.8,-0.7,1.8,2470.333,13.32,0.045,315.0
2020-12-04T03:19:03,42.805,6.029,-0.037,0.019,-0.01,103.0,112.0,101.0,13.4,1505.3,323.5,-0.7,1.8,2470.292,13.32,0.041,297.2
2020-12-04T03:22:03,42.805,6.029,-0.023,0.036,0.006,102.0,110.0,101.0,13.3,1505.3,324.6,-0.7,1.8,2470.298,13.32,0.042,327.4
2020-12-04T03:25:03,42.805,6.029,-0.032,0.038,0.012,101.0,113.0,100.0,13.4,1505.3,325.1,-0.7,1.8,2470.323,13.32,0.049,319.9
2020-12-04T03:28:03,42.805,6.029,-0.021,0.033,0.03,102.0,115.0,100.0,13.4,1505.3,328.3,-0.7,1.8,2470.3,13.32,0.039,327.5
2020-12-04T03:31:03,42.805,6.029,-0.048,0.039,0.014,102.0,113.0,100.0,13.3,1505.3,325.4,-0.7,1.8,2470.308,13.32,0.061,309.1
2020-12-04T03:34:03,42.805,6.029,0.001,0.032,0.002,102.0,111.0,101.0,13.4,1505.3,323.6,-0.7,1.8,2470.326,13.32,0.032,1.8
2020-12-04T03:37:03,42.805,6.029,-0.024,0.037,0.008,104.0,112.0,99.0,13.4,1505.3,323.9,-0.7,1.8,2470.294,13.32,0.044,327.0
2020-12-04T03:40:03,42.805,6.029,-0.01,0.02,0.013,102.0,110.0,101.0,13.4,1505.3,323.0,-0.7,1.8,2470.322,13.33,0.022,333.4
2020-12-04T03:43:03,42.805,6.029,-0.021,0.036,0.01,103.0,108.0,100.0,13.4,1505.3,325.8,-0.7,1.8,2470.333,13.32,0.041,329.7
2020-12-04T03:46:03,42.805,6.029,-0.044,0.035,0.0,102.0,115.0,99.0,13.3,1505.3,326.6,-0.7,1.8,2470.278,13.32,0.056,308.5
2020-12-04T03:49:03,42.805,6.029,0.0,0.034,0.017,103.0,109.0,100.0,13.4,1505.3,324.9,-0.7,1.8,2470.276,13.32,0.034,0.0
2020-12-04T03:52:03,42.805,6.029,-0.016,0.044,-0.003,102.0,113.0,102.0,13.4,1505.3,325.2,-0.7,1.9,2470.291,13.32,0.046,340.0
2020-12-04T03:55:03,42.805,6.029,-0.015,0.036,0.021,103.0,111.0,101.0,13.4,1505.3,326.3,-0.7,1.8,2470.286,13.32,0.039,337.4
2020-12-04T03:58:03,42.805,6.029,-0.027,0.018,-0.017,103.0,113.0,100.0,13.4,1505.3,327.3,-0.7,1.8,2470.301,13.32,0.032,303.7
2020-12-04T04:04:03,42.805,6.029,-0.036,0.041,-0.013,103.0,114.0,101.0,13.4,1505.2,326.5,-0.7,1.8,2470.345,13.3,0.054,318.7
2020-12-04T04:07:03,42.805,6.029,-0.006,0.043,0.0,103.0,112.0,100.0,13.3,1505.3,324.3,-0.7,1.9,2470.332,13.31,0.043,352.1
2020-12-04T04:10:03,42.805,6.029,-0.01,0.029,-0.003,102.0,116.0,101.0,13.4,1505.3,325.0,-0.7,1.9,2470.328,13.32,0.03,341.0
2020-12-04T04:13:03,42.805,6.029,-0.024,0.024,0.0,103.0,111.0,100.0,13.4,1505.3,325.5,-0.7,1.8,2470.326,13.32,0.033,315.0
2020-12-04T04:16:03,42.805,6.029,0.0,0.047,0.018,103.0,113.0,100.0,13.4,1505.3,323.8,-0.7,1.8,2470.321,13.32,0.047,0.0
2020-12-04T04:19:03,42.805,6.029,0.001,0.041,0.005,102.0,113.0,100.0,13.3,1505.3,324.3,-0.7,1.8,2470.321,13.32,0.041,1.4
2020-12-04T04:22:03,42.805,6.029,0.008,0.041,0.006,101.0,116.0,100.0,13.4,1505.3,325.9,-0.7,1.8,2470.319,13.32,0.041,11.0
2020-12-04T04:25:03,42.805,6.029,-0.006,0.038,0.0,104.0,110.0,100.0,13.4,1505.3,322.9,-0.7,1.8,2470.309,13.32,0.038,351.0
2020-12-04T04:28:03,42.805,6.029,-0.009,0.011,-0.012,101.0,113.0,100.0,13.4,1505.3,323.5,-0.7,1.9,2470.365,13.32,0.014,320.7
2020-12-04T04:31:03,42.805,6.029,-0.008,0.052,-0.016,104.0,111.0,100.0,13.4,1505.3,326.7,-0.7,1.8,2470.331,13.32,0.052,351.3
2020-12-04T04:34:03,42.805,6.029,0.004,0.048,0.016,102.0,115.0,100.0,13.4,1505.3,328.1,-0.7,1.8,2470.338,13.32,0.048,4.8
2020-12-04T04:37:03,42.805,6.029,-0.011,0.039,0.009,104.0,115.0,100.0,13.3,1505.3,326.4,-0.7,1.8,2470.317,13.32,0.04,344.3
2020-12-04T04:40:03,42.805,6.029,-0.029,0.029,-0.002,104.0,112.0,100.0,13.4,1505.3,325.7,-0.7,1.8,2470.304,13.32,0.041,315.0
2020-12-04T04:43:03,42.805,6.029,-0.003,0.038,0.013,103.0,116.0,101.0,13.4,1505.3,323.8,-0.7,1.8,2470.323,13.32,0.038,355.5
2020-12-04T04:46:03,42.805,6.029,-0.01,0.031,0.004,104.0,114.0,99.0,13.3,1505.3,324.6,-0.7,1.8,2470.303,13.32,0.032,342.1
2020-12-04T04:49:03,42.805,6.029,-0.036,0.02,-0.039,103.0,113.0,101.0,13.4,1505.3,327.2,-0.7,1.8,2470.344,13.32,0.041,299.1
2020-12-04T04:52:03,42.805,6.029,-0.023,0.042,-0.002,103.0,116.0,100.0,13.3,1505.3,327.0,-0.7,1.8,2470.333,13.32,0.047,331.3
2020-12-04T04:55:03,42.805,6.029,-0.03,0.05,0.024,101.0,113.0,100.0,13.4,1505.3,325.6,-0.7,1.8,2470.331,13.32,0.058,329.0
2020-12-04T04:58:03,42.805,6.029,0.008,0.025,0.013,103.0,112.0,100.0,13.4,1505.3,328.0,-0.7,1.8,2470.351,13.32,0.026,17.7
2020-12-04T05:04:03,42.805,6.029,-0.022,0.046,0.051,104.0,110.0,100.0,13.4,1505.2,325.4,-0.8,1.8,2470.396,13.3,0.05,334.4
2020-12-04T05:07:03,42.805,6.029,-0.045,0.047,-0.003,103.0,115.0,100.0,13.4,1505.3,323.8,-0.7,1.8,2470.356,13.31,0.065,316.2
2020-12-04T05:10:03,42.805,6.029,-0.018,0.029,-0.019,103.0,113.0,100.0,13.3,1505.3,328.1,-0.7,1.9,2470.387,13.32,0.034,328.2
2020-12-04T05:13:03,42.805,6.029,-0.001,0.044,0.014,103.0,115.0,100.0,13.4,1505.3,324.2,-0.7,1.8,2470.389,13.32,0.044,358.7
2020-12-04T05:16:03,42.805,6.029,-0.018,0.043,-0.007,102.0,114.0,101.0,13.3,1505.3,326.6,-0.7,1.8,2470.354,13.32,0.046,337.3
2020-12-04T05:19:03,42.805,6.029,-0.009,0.043,0.014,103.0,117.0,101.0,13.4,1505.3,327.1,-0.7,1.8,2470.361,13.32,0.043,348.2
2020-12-04T05:22:03,42.805,6.029,-0.011,0.038,0.01,102.0,116.0,101.0,13.4,1505.3,325.2,-0.7,1.9,2470.379,13.32,0.039,343.9
2020-12-04T05:25:03,42.805,6.029,-0.008,0.04,0.019,103.0,113.0,100.0,13.3,1505.3,324.5,-0.7,1.8,2470.364,13.32,0.04,348.7
2020-12-04T05:28:03,42.805,6.029,-0.004,0.039,0.043,100.0,111.0,101.0,13.4,1505.3,327.6,-0.7,1.8,2470.385,13.32,0.039,354.1
2020-12-04T05:31:03,42.805,6.029,-0.031,0.031,0.007,102.0,112.0,101.0,13.4,1505.3,326.2,-0.7,1.9,2470.375,13.32,0.043,315.0
2020-12-04T05:34:03,42.805,6.029,-0.015,0.026,0.018,102.0,112.0,100.0,13.4,1505.3,323.0,-0.7,1.8,2470.395,13.33,0.03,330.0
2020-12-04T05:37:03,42.805,6.029,-0.017,0.046,0.029,102.0,117.0,101.0,13.4,1505.3,323.4,-0.7,1.8,2470.415,13.32,0.049,339.7
2020-12-04T05:40:03,42.805,6.029,-0.027,0.006,0.0,104.0,111.0,100.0,13.4,1505.3,323.1,-0.7,1.8,2470.341,13.32,0.027,282.5
2020-12-04T05:43:03,42.805,6.029,-0.022,0.03,-0.016,103.0,113.0,100.0,13.3,1505.3,323.8,-0.7,1.8,2470.376,13.32,0.037,323.7
2020-12-04T05:46:03,42.805,6.029,-0.016,0.042,0.002,101.0,111.0,101.0,13.4,1505.3,323.9,-0.7,1.9,2470.366,13.32,0.044,339.1
2020-12-04T05:49:03,42.805,6.029,-0.013,0.022,0.003,102.0,115.0,99.0,13.4,1505.3,328.2,-0.7,1.8,2470.407,13.33,0.025,329.4
2020-12-04T05:52:03,42.805,6.029,-0.033,0.047,0.001,103.0,113.0,100.0,13.4,1505.3,325.8,-0.7,1.8,2470.389,13.33,0.057,324.9
2020-12-04T05:55:03,42.805,6.029,-0.017,0.039,0.002,102.0,113.0,100.0,13.4,1505.3,324.9,-0.7,1.8,2470.362,13.32,0.042,336.5
2020-12-04T05:58:03,42.805,6.029,-0.038,0.037,0.006,101.0,114.0,100.0,13.3,1505.3,323.6,-0.7,1.8,2470.418,13.32,0.053,314.2
2020-12-04T06:04:03,42.805,6.029,-0.018,0.048,-0.003,102.0,115.0,101.0,13.4,1505.2,325.2,-0.8,1.9,2470.428,13.3,0.051,339.4
2020-12-04T06:07:03,42.805,6.029,-0.014,0.051,0.013,102.0,113.0,100.0,13.3,1505.3,328.0,-0.7,1.8,2470.432,13.31,0.052,344.7
2020-12-04T06:10:03,42.805,6.029,-0.005,0.032,0.004,103.0,110.0,99.0,13.4,1505.3,323.5,-0.7,1.8,2470.407,13.32,0.032,351.1
2020-12-04T06:13:03,42.805,6.029,-0.049,0.019,-0.024,103.0,111.0,100.0,13.3,1505.3,322.8,-0.7,1.9,2470.436,13.32,0.052,291.2
2020-12-04T06:16:03,42.805,6.029,0.012,0.031,0.02,101.0,114.0,101.0,13.4,1505.3,326.0,-0.7,1.8,2470.427,13.32,0.033,21.2
2020-12-04T06:19:03,42.805,6.029,-0.021,0.051,0.014,103.0,112.0,101.0,13.3,1505.3,326.7,-0.7,1.8,2470.39,13.32,0.055,337.6
2020-12-04T06:22:03,42.805,6.029,0.0,0.028,0.027,103.0,116.0,99.0,13.4,1505.3,326.7,-0.7,1.8,2470.453,13.32,0.028,0.0
2020-12-04T06:25:03,42.805,6.029,-0.003,0.029,-0.011,102.0,115.0,100.0,13.4,1505.3,325.1,-0.7,1.8,2470.438,13.32,0.029,354.1
2020-12-04T06:28:03,42.805,6.029,-0.031,0.011,-0.001,103.0,115.0,100.0,13.4,1505.3,324.5,-0.7,1.8,2470.409,13.32,0.032,289.5
2020-12-04T06:31:03,42.805,6.029,0.026,0.043,0.023,102.0,115.0,99.0,13.3,1505.3,325.3,-0.7,1.8,2470.458,13.32,0.05,31.2
2020-12-04T06:34:03,42.805,6.029,-0.001,0.031,0.017,103.0,112.0,99.0,13.4,1505.3,327.7,-0.7,1.8,2470.444,13.32,0.031,358.2
2020-12-04T06:37:03,42.805,6.029,-0.016,0.027,0.008,101.0,112.0,101.0,13.3,1505.3,327.5,-0.7,1.8,2470.427,13.32,0.031,329.3
2020-12-04T06:40:03,42.805,6.029,-0.024,0.035,0.014,102.0,114.0,100.0,13.3,1505.3,326.4,-0.7,1.8,2470.466,13.32,0.042,325.6
2020-12-04T06:43:03,42.805,6.029,-0.005,0.039,0.021,102.0,112.0,101.0,13.4,1505.3,322.6,-0.7,1.8,2470.421,13.33,0.039,352.7
2020-12-04T06:46:03,42.805,6.029,-0.042,0.008,-0.023,103.0,111.0,100.0,13.4,1505.3,324.5,-0.7,1.8,2470.446,13.33,0.042,280.8
2020-12-04T06:49:03,42.805,6.029,-0.009,0.028,-0.001,102.0,115.0,100.0,13.3,1505.3,325.9,-0.7,1.8,2470.489,13.32,0.029,342.2
2020-12-04T06:52:03,42.805,6.029,-0.02,0.037,0.017,103.0,114.0,100.0,13.4,1505.3,326.9,-0.7,1.8,2470.49,13.32,0.042,331.6
2020-12-04T06:55:03,42.805,6.029,-0.037,0.033,-0.021,102.0,116.0,100.0,13.4,1505.3,323.6,-0.7,1.8,2470.474,13.32,0.049,311.7
2020-12-04T06:58:03,42.805,6.029,-0.025,0.041,-0.002,103.0,113.0,99.0,13.4,1505.3,324.0,-0.7,1.8,2470.468,13.32,0.048,328.6
2020-12-04T08:04:03,42.805,6.029,0.005,0.01,0.001,102.0,110.0,100.0,13.3,1505.1,326.3,-0.8,1.8,2471.094,13.27,0.011,26.6
2020-12-04T08:07:03,42.805,6.029,-0.023,0.013,-0.009,103.0,118.0,101.0,13.4,1505.2,326.5,-0.7,1.8,2470.969,13.29,0.026,299.5
2020-12-04T08:10:03,42.805,6.029,-0.017,0.012,0.003,102.0,115.0,100.0,13.3,1505.2,325.2,-0.8,1.9,2470.899,13.3,0.02,305.2
2020-12-04T08:13:03,42.805,6.029,-0.017,0.017,-0.001,101.0,112.0,100.0,13.4,1505.3,324.4,-0.7,1.8,2470.872,13.31,0.024,315.0
2020-12-04T08:16:03,42.805,6.029,-0.022,0.012,0.013,104.0,111.0,101.0,13.4,1505.3,327.7,-0.7,1.8,2470.836,13.31,0.025,298.6
2020-12-04T08:19:03,42.805,6.029,-0.026,0.04,0.011,102.0,115.0,101.0,13.4,1505.3,327.6,-0.7,1.8,2470.765,13.32,0.047,327.0
2020-12-04T08:22:03,42.805,6.029,-0.004,0.022,0.034,102.0,117.0,100.0,13.3,1505.3,326.1,-0.7,1.9,2470.763,13.32,0.022,349.7
2020-12-04T08:25:03,42.805,6.029,-0.011,0.046,-0.01,102.0,120.0,100.0,13.4,1505.3,325.2,-0.7,1.9,2470.686,13.32,0.047,346.6
2020-12-04T08:28:03,42.805,6.029,-0.011,0.028,-0.027,102.0,118.0,100.0,13.4,1505.3,328.0,-0.7,1.9,2470.703,13.32,0.03,338.6
2020-12-04T08:31:03,42.805,6.029,-0.009,0.028,-0.03,103.0,112.0,100.0,13.4,1505.3,325.4,-0.7,1.8,2470.671,13.32,0.029,342.2
2020-12-04T08:34:03,42.805,6.029,-0.008,0.018,0.007,102.0,119.0,100.0,13.3,1505.3,326.3,-0.7,1.8,2470.641,13.33,0.019,336.0
2020-12-04T08:37:03,42.805,6.029,-0.019,0.017,-0.008,102.0,113.0,100.0,13.4,1505.3,325.0,-0.7,1.8,2470.616,13.33,0.025,311.8
2020-12-04T08:40:03,42.805,6.029,-0.004,0.003,-0.013,102.0,120.0,100.0,13.4,1505.3,326.2,-0.7,1.8,2470.603,13.33,0.005,306.9
2020-12-04T08:43:03,42.805,6.029,-0.013,0.029,0.018,102.0,113.0,100.0,13.4,1505.3,322.8,-0.7,1.8,2470.64,13.33,0.031,335.9
2020-12-04T08:46:03,42.805,6.029,-0.008,0.024,0.035,101.0,112.0,101.0,13.3,1505.3,326.4,-0.7,1.8,2470.596,13.33,0.025,341.6
2020-12-04T08:49:03,42.805,6.029,0.017,0.013,0.015,104.0,111.0,100.0,13.3,1505.3,325.9,-0.7,1.8,2470.551,13.33,0.021,52.6
2020-12-04T08:52:03,42.805,6.029,0.003,0.024,0.011,101.0,114.0,100.0,13.4,1505.3,326.3,-0.7,1.8,2470.557,13.33,0.024,7.1
2020-12-04T08:55:03,42.805,6.029,0.001,0.038,-0.008,102.0,115.0,101.0,13.4,1505.3,326.5,-0.7,1.8,2470.566,13.33,0.038,1.5
2020-12-04T08:58:03,42.805,6.029,0.001,0.04,0.016,101.0,118.0,100.0,13.3,1505.3,326.9,-0.7,1.9,2470.59,13.33,0.04,1.4
2020-12-04T09:04:03,42.805,6.029,-0.019,0.026,-0.005,102.0,117.0,100.0,13.4,1505.3,325.2,-0.7,1.8,2470.622,13.31,0.032,323.8
2020-12-04T09:07:03,42.805,6.029,-0.014,0.024,-0.018,101.0,114.0,100.0,13.4,1505.3,326.5,-0.7,1.8,2470.567,13.31,0.027,329.7
2020-12-04T09:10:03,42.805,6.029,-0.029,0.023,-0.019,101.0,116.0,100.0,13.3,1505.3,322.8,-0.7,1.8,2470.607,13.32,0.037,308.4
2020-12-04T09:13:03,42.805,6.029,-0.009,0.01,-0.013,102.0,115.0,100.0,13.4,1505.3,327.2,-0.7,1.8,2470.586,13.32,0.013,318.0
2020-12-04T09:16:03,42.805,6.029,0.0,0.041,0.03,101.0,114.0,100.0,13.4,1505.3,328.1,-0.7,1.8,2470.605,13.32,0.041,0.0
2020-12-04T09:19:03,42.805,6.029,-0.002,0.026,0.054,102.0,112.0,100.0,13.4,1505.3,327.9,-0.7,1.8,2470.553,13.33,0.026,355.6
2020-12-04T09:22:03,42.805,6.029,0.0,0.0,-0.008,102.0,110.0,99.0,13.4,1505.3,327.7,-0.7,1.9,2470.565,13.33,0.0,0.0
2020-12-04T09:25:03,42.805,6.029,-0.029,0.025,-0.021,102.0,114.0,100.0,13.4,1505.3,327.2,-0.7,1.9,2470.608,13.33,0.038,310.8
2020-12-04T09:28:03,42.805,6.029,-0.006,0.025,0.013,102.0,111.0,101.0,13.3,1505.3,326.0,-0.7,1.8,2470.518,13.33,0.025,346.5
2020-12-04T09:31:03,42.805,6.029,0.004,0.049,0.008,102.0,111.0,100.0,13.4,1505.3,325.2,-0.7,1.8,2470.602,13.33,0.049,4.7
2020-12-04T09:34:03,42.805,6.029,0.0,0.029,0.014,101.0,118.0,101.0,13.3,1505.3,327.2,-0.7,1.8,2470.57,13.33,0.028,0.0
2020-12-04T09:37:03,42.805,6.029,-0.01,0.023,0.005,102.0,116.0,100.0,13.4,1505.3,326.3,-0.7,1.8,2470.494,13.33,0.025,336.5
2020-12-04T09:40:03,42.805,6.029,-0.011,0.048,0.046,101.0,114.0,99.0,13.4,1505.3,324.8,-0.7,1.8,2470.583,13.33,0.049,347.1
2020-12-04T09:43:03,42.805,6.029,-0.031,0.023,-0.003,101.0,111.0,100.0,13.4,1505.3,324.7,-0.7,1.8,2470.526,13.33,0.038,306.6
2020-12-04T09:46:03,42.805,6.029,0.013,0.048,0.056,101.0,110.0,100.0,13.3,1505.3,324.9,-0.7,1.8,2470.547,13.33,0.049,15.2
2020-12-04T09:49:03,42.805,6.029,0.008,0.023,0.006,102.0,109.0,99.0,13.3,1505.3,327.2,-0.7,1.8,2470.543,13.33,0.024,19.2
2020-12-04T09:52:03,42.805,6.029,-0.004,0.019,0.034,102.0,112.0,100.0,13.3,1505.3,326.3,-0.7,1.8,2470.573,13.33,0.019,348.1
2020-12-04T09:55:03,42.805,6.029,0.004,0.026,0.013,102.0,113.0,99.0,13.4,1505.3,326.4,-0.7,1.8,2470.564,13.33,0.026,8.7
2020-12-04T09:58:03,42.805,6.029,0.009,0.025,0.026,102.0,110.0,99.0,13.3,1505.3,325.4,-0.6,1.8,2470.548,13.33,0.026,19.8
2020-12-04T10:04:03,42.805,6.029,-0.032,0.024,0.0,101.0,108.0,100.0,13.3,1505.3,323.7,-0.7,1.8,2470.58,13.31,0.04,306.9
2020-12-04T10:07:03,42.805,6.029,0.007,0.018,0.026,102.0,109.0,102.0,13.3,1505.3,326.7,-0.7,1.8,2470.584,13.31,0.019,21.2
2020-12-04T10:10:03,42.805,6.029,-0.022,0.015,-0.007,102.0,109.0,101.0,13.4,1505.3,324.7,-0.7,1.8,2470.58,13.32,0.026,304.3
2020-12-04T10:13:03,42.805,6.029,0.006,0.005,-0.007,103.0,108.0,99.0,13.4,1505.3,326.0,-0.7,1.8,2470.632,13.32,0.007,50.2
2020-12-04T10:16:03,42.805,6.029,0.011,0.013,0.012,101.0,109.0,100.0,13.4,1505.3,323.8,-0.7,1.8,2470.627,13.33,0.017,40.2
2020-12-04T10:19:03,42.805,6.029,0.02,0.015,0.016,103.0,109.0,99.0,13.4,1505.3,323.5,-0.7,1.8,2470.569,13.33,0.025,53.1
2020-12-04T10:22:03,42.805,6.029,-0.028,0.035,0.018,103.0,110.0,100.0,13.4,1505.3,324.9,-0.7,1.8,2470.57,13.33,0.044,321.3
2020-12-04T10:25:03,42.805,6.029,0.006,0.03,0.0,102.0,109.0,100.0,13.4,1505.3,327.6,-0.7,1.8,2470.571,13.33,0.03,11.3
2020-12-04T10:28:03,42.805,6.029,-0.018,0.02,0.002,101.0,109.0,99.0,13.3,1505.3,327.7,-0.7,1.8,2470.57,13.33,0.026,318.0
2020-12-04T10:31:03,42.805,6.029,-0.007,0.04,0.011,103.0,108.0,100.0,13.4,1505.3,325.3,-0.7,1.8,2470.554,13.33,0.04,350.1
2020-12-04T10:34:03,42.805,6.029,-0.024,0.03,0.003,103.0,109.0,99.0,13.4,1505.3,326.2,-0.7,1.9,2470.582,13.33,0.038,321.3
2020-12-04T10:37:03,42.805,6.029,-0.009,0.035,0.044,101.0,111.0,99.0,13.3,1505.3,327.9,-0.7,1.8,2470.589,13.33,0.036,345.6
2020-12-04T10:40:03,42.805,6.029,-0.026,0.027,0.019,102.0,109.0,100.0,13.3,1505.3,327.4,-0.7,1.8,2470.535,13.33,0.037,316.1
2020-12-04T10:43:03,42.805,6.029,0.008,0.023,0.013,100.0,108.0,102.0,13.4,1505.3,327.8,-0.7,1.8,2470.59,13.33,0.024,19.2
2020-12-04T10:46:03,42.805,6.029,-0.025,0.015,-0.028,103.0,111.0,99.0,13.4,1505.3,327.9,-0.7,1.9,2470.56,13.33,0.029,301.0
2020-12-04T10:49:03,42.805,6.029,-0.007,0.044,0.029,101.0,109.0,100.0,13.4,1505.3,327.7,-0.7,1.9,2470.567,13.33,0.044,351.0
2020-12-04T10:52:03,42.805,6.029,-0.02,0.027,0.019,102.0,109.0,99.0,13.4,1505.3,324.4,-0.7,1.8,2470.587,13.33,0.033,323.5
2020-12-04T10:55:03,42.805,6.029,-0.013,0.008,0.002,101.0,111.0,100.0,13.4,1505.3,326.9,-0.7,1.8,2470.545,13.33,0.015,301.6